Date String (YYYY-MM-DD hh:mm:ss) UTC,Instrument flags,Ambient pressure (hPa),Sample flow (lpm),Bypass flow (lpm),Sample temperature (°C),Ambient temperature (°C),ASC tube jacket temperature (°C),LED temperature (°C),Box temperature (°C),Sample RH (%),Span deviation,Mass concentration (μg/m³),Mass concentration (μg/m³),Mass concentration (μg/m³)
DateTimeUTC,F1_M11,P_M11,Q1_M11,Q2_M11,T1_M11,T2_M11,T3_M11,T4_M11,T5_M11,U1_M11,ZSPAN_M11,X0_M11,X2_M11,X1_M11
2022-11-03 03:00:00,,0817.1,4.99,0.00,29.6,28.0,00.0,38.5,31.3,06.7,0000.0,0006.84,0002.27,0001.57
2022-11-03 03:01:00,,0817.1,5.00,0.00,29.6,28.0,00.0,38.5,31.3,06.8,0000.0,0006.51,0002.26,0001.55
2022-11-03 03:02:00,,0817.1,5.01,0.00,29.6,28.0,00.0,38.5,31.3,06.7,0000.0,0007.02,0002.29,0001.56
2022-11-03 03:03:00,,0817.0,5.01,0.00,29.6,28.0,00.0,38.5,31.3,06.7,0000.0,0007.53,0002.26,0001.55
2022-11-03 03:04:00,,0817.0,5.00,0.00,29.6,27.9,00.0,38.5,31.3,06.7,0000.0,0007.03,0002.19,0001.54
2022-11-03 03:05:00,,0817.0,4.99,0.00,29.6,27.9,00.0,38.5,31.3,06.8,0000.0,0006.67,0002.18,0001.53
2022-11-03 03:06:00,,0817.0,4.99,0.00,29.6,27.9,00.0,38.5,31.3,06.8,0000.0,0006.52,0002.17,0001.52
2022-11-03 03:07:00,,0817.0,5.02,0.00,29.5,27.9,00.0,38.5,31.3,06.8,0000.0,0006.40,0002.15,0001.51
2022-11-03 03:08:00,,0817.1,5.00,0.00,29.5,27.9,00.0,38.5,31.3,06.7,0000.0,0005.91,0002.14,0001.50
2022-11-03 03:09:00,,0817.1,5.00,0.00,29.5,27.9,00.0,38.5,31.3,06.7,0000.0,0005.43,0002.14,0001.50
2022-11-03 03:10:00,,0817.0,5.00,0.00,29.5,27.9,00.0,38.4,31.3,06.8,0000.0,0005.47,0002.15,0001.48
2022-11-03 03:11:00,,0817.0,5.00,0.00,29.5,27.9,00.0,38.4,31.3,06.8,0000.0,0006.08,0002.17,0001.47
2022-11-03 03:12:00,,0817.1,5.00,0.00,29.5,27.9,00.0,38.4,31.3,06.8,0000.0,0006.24,0002.21,0001.47
2022-11-03 03:13:00,,0817.0,5.00,0.00,29.5,27.9,00.0,38.4,31.3,06.9,0000.0,0006.12,0002.18,0001.47
2022-11-03 03:14:00,,0816.9,4.99,0.00,29.5,27.9,00.0,38.4,31.2,06.8,0000.0,0005.79,0002.22,0001.48
2022-11-03 03:15:00,,0816.9,5.00,0.00,29.5,27.9,00.0,38.4,31.3,06.8,0000.0,0006.00,0002.28,0001.48
2022-11-03 03:16:00,,0816.9,5.00,0.00,29.5,27.8,00.0,38.4,31.2,06.8,0000.0,0006.23,0002.30,0001.47
2022-11-03 03:17:00,,0817.4,5.00,0.00,29.5,27.8,00.0,38.4,31.2,06.8,0000.0,0006.58,0002.33,0001.47
2022-11-03 03:18:00,,0817.3,5.01,0.00,29.5,27.8,00.0,38.4,31.2,06.9,0000.0,0006.47,0002.29,0001.48
2022-11-03 03:19:00,,0817.1,5.00,0.00,29.5,27.8,00.0,38.4,31.2,06.8,0000.0,0006.48,0002.28,0001.48
2022-11-03 03:20:00,,0817.1,5.00,0.00,29.5,27.8,00.0,38.4,31.2,06.8,0000.0,0006.46,0002.25,0001.48
2022-11-03 03:21:00,,0817.1,4.99,0.00,29.5,27.8,00.0,38.4,31.2,06.8,0000.0,0007.46,0002.25,0001.49
2022-11-03 03:22:00,,0816.9,5.01,0.00,29.4,27.8,00.0,38.4,31.2,06.8,0000.0,0007.09,0002.21,0001.49
2022-11-03 03:23:00,,0816.9,5.00,0.00,29.4,27.8,00.0,38.4,31.2,06.8,0000.0,0007.45,0002.18,0001.49
2022-11-03 03:24:00,,0816.9,4.99,0.00,29.4,27.8,00.0,38.4,31.2,06.8,0000.0,0007.78,0002.15,0001.49
2022-11-03 03:25:00,,0816.9,5.00,0.00,29.4,27.8,00.0,38.4,31.1,06.8,0000.0,0007.53,0002.14,0001.48
2022-11-03 03:26:00,,0816.9,5.00,0.00,29.4,27.7,00.0,38.3,31.2,06.8,0000.0,0007.53,0002.20,0001.49
2022-11-03 03:27:00,,0817.0,5.01,0.00,29.4,27.7,00.0,38.3,31.1,06.8,0000.0,0007.49,0002.21,0001.50
2022-11-03 03:28:00,,0817.0,5.01,0.00,29.4,27.7,00.0,38.3,31.2,06.8,0000.0,0007.25,0002.16,0001.51
2022-11-03 03:29:00,,0817.0,4.99,0.00,29.4,27.7,00.0,38.3,31.2,06.8,0000.0,0007.44,0002.12,0001.50
2022-11-03 03:30:00,,0817.0,5.00,0.00,29.4,27.7,00.0,38.3,31.1,06.8,0000.0,0007.52,0002.15,0001.49
2022-11-03 03:31:00,,0817.0,5.01,0.00,29.4,27.7,00.0,38.3,31.1,06.8,0000.0,0007.92,0002.17,0001.51
2022-11-03 03:32:00,,0817.0,5.01,0.00,29.4,27.7,00.0,38.3,31.1,06.8,0000.0,0007.63,0002.12,0001.52
2022-11-03 03:33:00,,0817.1,5.00,0.00,29.4,27.7,00.0,38.3,31.1,06.8,0000.0,0007.48,0002.09,0001.51
2022-11-03 03:34:00,,0817.1,4.99,0.00,29.4,27.7,00.0,38.3,31.1,06.8,0000.0,0007.39,0002.09,0001.50
2022-11-03 03:35:00,,0817.1,4.99,0.00,29.3,27.7,00.0,38.2,31.1,06.8,0000.0,0007.51,0002.10,0001.50
2022-11-03 03:36:00,,0817.1,5.00,0.00,29.3,27.7,00.0,38.2,31.1,06.8,0000.0,0007.53,0002.11,0001.52
2022-11-03 03:37:00,,0817.3,5.01,0.00,29.3,27.7,00.0,38.2,31.1,06.8,0000.0,0007.54,0002.07,0001.52
2022-11-03 03:38:00,,0817.1,5.00,0.00,29.3,27.7,00.0,38.2,31.1,06.8,0000.0,0007.68,0002.10,0001.53
2022-11-03 03:39:00,,0817.1,5.00,0.00,29.3,27.7,00.0,38.2,31.1,06.8,0000.0,0007.76,0002.13,0001.53
2022-11-03 03:40:00,,0817.1,5.00,0.00,29.3,27.7,00.0,38.2,31.1,06.8,0000.0,0007.60,0002.17,0001.54
2022-11-03 03:41:00,,0817.1,5.00,0.00,29.3,27.7,00.0,38.2,31.1,06.8,0000.0,0007.71,0002.18,0001.55
2022-11-03 03:42:00,,0817.1,4.99,0.00,29.3,27.7,00.0,38.2,31.1,06.8,0000.0,0007.93,0002.20,0001.53
2022-11-03 03:43:00,,0817.1,4.99,0.00,29.3,27.7,00.0,38.2,31.1,06.8,0000.0,0007.66,0002.28,0001.52
2022-11-03 03:44:00,,0817.0,4.99,0.00,29.3,27.7,00.0,38.2,31.0,06.8,0000.0,0007.64,0002.30,0001.52
2022-11-03 03:45:00,,0817.0,5.02,0.00,29.3,27.7,00.0,38.2,31.0,06.8,0000.0,0007.14,0002.29,0001.53
2022-11-03 03:46:00,,0817.0,4.99,0.00,29.3,27.7,00.0,38.2,31.0,06.8,0000.0,0006.01,0002.28,0001.53
2022-11-03 03:47:00,,0817.1,4.99,0.00,29.3,27.7,00.0,38.2,31.0,06.8,0000.0,0005.75,0002.21,0001.51
2022-11-03 03:48:00,,0817.0,4.99,0.00,29.3,27.6,00.0,38.2,31.0,06.8,0000.0,0006.03,0002.18,0001.50
2022-11-03 03:49:00,,0817.0,5.01,0.00,29.3,27.7,00.0,38.2,31.0,06.8,0000.0,0005.72,0002.18,0001.50
2022-11-03 03:50:00,,0817.0,5.01,0.00,29.3,27.6,00.0,38.2,31.0,06.8,0000.0,0006.00,0002.17,0001.50
2022-11-03 03:51:00,,0817.0,5.00,0.00,29.3,27.6,00.0,38.1,31.0,06.8,0000.0,0006.94,0002.17,0001.50
2022-11-03 03:52:00,,0817.2,4.99,0.00,29.3,27.6,00.0,38.1,31.0,06.8,0000.0,0006.70,0002.15,0001.49
2022-11-03 03:53:00,,0817.0,5.00,0.00,29.3,27.6,00.0,38.2,31.0,06.8,0000.0,0005.50,0002.14,0001.49
2022-11-03 03:54:00,,0817.0,4.99,0.00,29.2,27.6,00.0,38.1,31.0,06.8,0000.0,0005.37,0002.08,0001.49
2022-11-03 03:55:00,,0817.1,5.00,0.00,29.2,27.6,00.0,38.1,31.0,06.8,0000.0,0005.50,0002.09,0001.50
2022-11-03 03:56:00,,0817.0,5.00,0.00,29.2,27.6,00.0,38.1,30.9,06.9,0000.0,0005.67,0002.14,0001.51
2022-11-03 03:57:00,,0817.1,5.01,0.00,29.2,27.6,00.0,38.1,31.0,06.8,0000.0,0005.83,0002.12,0001.50
2022-11-03 03:58:00,,0817.0,5.00,0.00,29.2,27.6,00.0,38.1,31.0,06.8,0000.0,0005.92,0002.13,0001.49
2022-11-03 03:59:00,,0817.0,4.99,0.00,29.2,27.6,00.0,38.1,31.0,06.8,0000.0,0006.02,0002.16,0001.49
